Погода в Великом Октябре

Россия / Волгоградская область     48°39′35″N   44°43′42″E
темп.,
°C
ветер,
м/с
пор.,
м/с
влажн.,
%
обл.,
%
осадки,
мм/ч
давл.,
гПа
погр.,
м
6 мая, чт
чт600:00+12ю22460 0.0 101865
03:00+11ю11515 0.0 101929
06:00+12ююв22515 0.0 101994
09:00+16ююв45365 0.0 10191016
12:00+19ююв45295 0.0 10182055
15:00+20ююв442764 0.0 10172254
18:00+19юв3433100 0.0 10161342
21:00+16вюв3741100 0.0 1016223
7 мая, пт
пт700:00+14юв3943100 0.0 1016262
03:00+12ююв3851100 0.0 1016226
06:00+13ю3954100 0.0 1017300
09:00+17ю573896 0.0 1017664
12:00+20ю6730100 0.0 10171685
15:00+21ю5631100 0.0 10162087
18:00+20ююз3437100 0.0 10161207
21:00+17юз114944 0.0 101742
8 мая, сб
сб800:00+16ссз115524 0.0 101715
03:00+14ссз11630 0.0 101615
06:00+15ссз11635 0.0 101750
09:00+20ююз114657 0.0 1017653
12:00+23ююз233435 0.0 10161761
15:00+24ююз343057 0.0 10142155
18:00+23ю45355 0.0 10141355
21:00+19ю37495 0.0 1014182
9 мая, вс
вс900:00+18ююв23535 0.0 101351
03:00+16ююв4105794 0.0 1012290
06:00+15ююв4953100 0.0 1012308
09:00+20ююв61034100 0.0 1010820
12:00+23ююв71128100 0.0 10091665
15:00+24ю61030100 0.0 10082684
18:00+18ююв41067100 0.6 1009678
21:00+17ююз358190 0.6 1009391
10 мая, пн
пн1000:00+13ю71090100 2.8 1010554
03:00+11юз5787100 3.8 1010480
06:00+10юз5685100 0.1 1012503
09:00+11юз4478100 0.1 1012733
12:00+12ююз4568100 0.0 10141102
15:00+11ю4472100 0.3 1015842
18:00+10ююв4570100 0.1 1017765
21:00+10ююв4771100 0.1 1018761